Waarnemingen

Advertentie
Mijn weer
Tiree, Groot Brittannië (3100): temperatuur & dauwpunt: 15.02.2018 13:00:00 - 21.02.2018 13:00:00 (GMT)Tiree, Groot Brittannië (3100): temperatuur -20cm & temperatuur -100cm: 15.02.2018 13:00:00 - 21.02.2018 13:00:00 (GMT)Tiree, Groot Brittannië (3100): windsnelheid & windstoten: 15.02.2018 13:00:00 - 21.02.2018 13:00:00 (GMT)Tiree, Groot Brittannië (3100): windrichting: 15.02.2018 13:00:00 - 21.02.2018 13:00:00 (GMT)Tiree, Groot Brittannië (3100): luchtdruk: 15.02.2018 13:00:00 - 21.02.2018 13:00:00 (GMT)Tiree, Groot Brittannië (3100): zicht: 15.02.2018 13:00:00 - 21.02.2018 13:00:00 (GMT)Tiree, Groot Brittannië (3100): Zonneschijnduur: 15.02.2018 13:00:00 - 21.02.2018 13:00:00 (GMT)Tiree, Groot Brittannië (3100): neerslag: 15.02.2018 13:00:00 - 21.02.2018 13:00:00 (GMT)
Datum & Tijd tt [°C] td [°C] tt -20cm [°C] tt -100cm [°C] ff [km/u] ff [kn] fx [km/u] fx [kn] dd ppp [hPa] vv [km] sd [min] rr [mm]
21.02.2018 13:00:00 - - - - - - - - - - - - -
21.02.2018 12:00:00 6,4 3,1 - - 24 13 - - ZZO 1028,0 10 60 0,0
21.02.2018 11:00:00 6,3 3,9 - - 21 11 - - ZZO 1028,5 10 60 0,0
21.02.2018 10:00:00 6,0 4,3 - - 21 11 - - ZZO 1028,7 10 42 0,0
21.02.2018 09:00:00 5,0 4,2 6,5 6,7 18 10 - - ZZO 1028,9 9 0 0,0
21.02.2018 08:00:00 4,8 4,4 - - 15 8 - - ZO 1028,9 7 0 0,2
21.02.2018 07:00:00 3,7 3,3 - - 11 6 - - ZZO 1029,1 6 0 0,0
21.02.2018 06:00:00 4,3 4,3 - - 11 6 - - ZO 1029,3 4,4 0 0,0
21.02.2018 05:00:00 3,5 3,2 - - 5 3 - - OZO 1029,6 3,3 0 0,0
21.02.2018 04:00:00 2,7 2,4 - - 2 1 - - Z 1029,9 3,6 0 0,0
21.02.2018 03:00:00 2,5 2,0 - - 11 6 - - O 1030,2 3,5 0 0,0
21.02.2018 02:00:00 2,3 1,5 - - 11 6 - - ONO 1030,4 5 0 0,0
21.02.2018 01:00:00 4,3 2,9 - - 13 7 - - NNW 1030,7 10 0 0,0
21.02.2018 00:00:00 5,2 4,0 - - 11 6 - - WNW 1030,8 7 - 0,0
20.02.2018 23:00:00 5,6 4,7 - - 9 5 - - NW 1030,8 6 0 0,0
20.02.2018 22:00:00 4,6 3,7 - - 11 6 - - W 1030,9 9 0 0,0
20.02.2018 21:00:00 4,9 3,4 - - 13 7 - - WNW 1030,5 5 0 0,0
20.02.2018 20:00:00 4,3 2,6 - - 13 7 - - WNW 1030,2 7 0 0,0
20.02.2018 19:00:00 4,8 3,0 - - 11 6 - - WNW 1029,9 7 0 0,0
20.02.2018 18:00:00 6,3 3,7 - - 9 5 - - WNW 1029,7 10 0 0,0
20.02.2018 17:00:00 6,8 4,1 - - 13 7 - - WNW 1029,5 10 0 0,0
20.02.2018 16:00:00 7,3 3,4 - - 18 10 - - NW 1029,0 10 54 0,0
20.02.2018 15:00:00 8,0 4,7 - - 16 9 - - NW 1028,7 10 0 0,0
20.02.2018 14:00:00 6,9 4,6 - - 24 13 - - NW 1028,7 9 0 0,0
20.02.2018 13:00:00 8,1 5,4 - - 18 10 - - NW 1028,2 9 36 0,0
20.02.2018 12:00:00 8,5 5,5 - - 22 12 - - NW 1027,8 10 60 0,0
20.02.2018 11:00:00 8,3 5,4 - - 16 9 - - NW 1027,0 11 60 0,0
20.02.2018 10:00:00 7,2 5,2 - - 15 8 - - NW 1026,6 10 18 0,2
20.02.2018 09:00:00 6,2 3,9 6,4 6,7 26 14 46 25 NW 1026,3 9 24 0,2
20.02.2018 08:00:00 6,0 4,2 - - 18 10 - - WNW 1025,2 9 0 0,0
20.02.2018 07:00:00 6,0 3,9 - - 24 13 - - WNW 1024,4 9 0 0,0
20.02.2018 06:00:00 6,8 4,7 - - 21 11 - - WNW 1023,8 8 0 0,0
20.02.2018 05:00:00 6,6 4,7 - - 24 13 - - WNW 1022,9 11 0 0,0
20.02.2018 04:00:00 6,1 3,8 - - 22 12 - - NW 1022,3 10 0 0,0
20.02.2018 03:00:00 6,4 4,5 - - 18 10 - - WNW 1021,7 10 0 0,0
20.02.2018 02:00:00 6,6 4,6 - - 22 12 - - WNW 1021,2 12 0 0,0
20.02.2018 01:00:00 6,6 4,5 - - 28 15 - - WNW 1020,7 11 0 0,0
20.02.2018 00:00:00 6,9 4,1 - - 28 15 - - W 1020,3 19 - 0,0
19.02.2018 23:00:00 7,0 5,8 - - 21 11 - - W 1019,9 10 0 0,0
19.02.2018 22:00:00 5,4 4,2 - - 15 8 - - W 1019,4 8 0 0,0
19.02.2018 21:00:00 7,7 5,5 - - 24 13 - - W 1019,1 11 0 0,0
19.02.2018 20:00:00 7,7 6,9 - - 21 11 - - W 1018,5 9 0 0,0
19.02.2018 19:00:00 7,6 7,0 - - 13 7 - - W 1017,7 11 0 0,2
19.02.2018 18:00:00 7,6 7,5 - - 28 15 - - W 1017,2 3,1 0 1,2
19.02.2018 17:00:00 8,3 8,2 - - 22 12 - - WNW 1016,2 2,1 0 0,4
19.02.2018 16:00:00 8,7 8,5 - - 22 12 - - ZZW 1015,8 1,8 0 0,2
19.02.2018 15:00:00 9,3 9,0 - - 21 11 - - ZZW 1015,9 2,9 0 0,0
19.02.2018 14:00:00 9,4 8,8 - - 22 12 - - ZZW 1016,3 3,3 6 0,0
19.02.2018 13:00:00 9,9 8,9 - - 22 12 - - ZW 1016,3 10 0 0,0
19.02.2018 12:00:00 10,2 9,5 - - 18 10 - - ZW 1016,2 10 0 0,0
19.02.2018 11:00:00 9,8 9,6 - - 21 11 - - WZW 1016,1 9 0 0,0
19.02.2018 10:00:00 9,1 8,9 - - 18 10 - - WZW 1015,8 5 0 0,0
19.02.2018 09:00:00 8,9 8,7 5,9 6,7 16 9 - - WZW 1015,4 3,7 0 0,0
19.02.2018 08:00:00 8,7 8,6 - - 18 10 - - WZW 1014,8 4,5 0 0,0
19.02.2018 07:00:00 8,8 8,6 - - 18 10 - - WZW 1014,4 4,3 0 0,0
19.02.2018 06:00:00 8,8 8,7 - - 18 10 - - WZW 1014,1 4,1 0 0,0
19.02.2018 05:00:00 8,7 8,7 - - 18 10 - - WZW 1013,8 4,0 0 0,0
19.02.2018 04:00:00 8,9 8,8 - - 18 10 - - WZW 1013,4 3,2 0 0,0
19.02.2018 03:00:00 9,0 9,0 - - 18 10 - - WZW 1013,3 3,4 0 0,0
19.02.2018 02:00:00 9,1 9,0 - - 21 11 - - WZW 1013,1 3,5 0 0,0
19.02.2018 01:00:00 9,0 9,0 - - 22 12 - - WZW 1012,8 3,3 0 0,4
19.02.2018 00:00:00 8,9 8,9 - - 21 11 - - WZW 1012,6 2,8 - 0,8
18.02.2018 23:00:00 9,0 9,0 - - 21 11 - - WZW 1012,3 3,3 0 1,6
18.02.2018 22:00:00 9,0 8,9 - - 21 11 - - WZW 1012,1 3,4 0 1,2
18.02.2018 21:00:00 9,1 9,0 - - 21 11 - - WZW 1011,9 2,8 0 1,2
18.02.2018 20:00:00 9,1 9,1 - - 21 11 - - ZW 1011,6 3,9 0 1,2
18.02.2018 19:00:00 8,0 8,0 - - 18 10 - - Z 1011,3 2,4 0 1,4
18.02.2018 18:00:00 7,5 7,4 - - 28 15 - - ZZO 1011,3 3,5 0 1,0
18.02.2018 17:00:00 7,2 7,1 - - 31 17 - - ZZO 1011,5 6 0 1,6
18.02.2018 16:00:00 7,1 6,9 - - 35 19 46 25 ZZO 1011,7 3,2 0 1,8
18.02.2018 15:00:00 7,0 6,6 - - 34 18 50 27 ZZO 1012,0 3,2 0 0,8
18.02.2018 14:00:00 7,0 6,4 - - 35 19 50 27 ZZO 1012,7 7 0 0,8
18.02.2018 13:00:00 7,0 5,9 - - 39 21 50 27 ZZO 1013,1 7 0 0,2
18.02.2018 12:00:00 7,2 5,4 - - 42 23 54 29 ZZO 1013,4 15 6 0,0
18.02.2018 11:00:00 7,2 5,5 - - 41 22 52 28 ZZO 1013,7 11 42 0,0
18.02.2018 10:00:00 6,6 4,8 - - 37 20 48 26 ZZO 1014,2 14 0 0,0
18.02.2018 09:00:00 6,4 4,9 5,7 6,7 34 18 46 25 ZZO 1014,6 14 0 0,0
18.02.2018 08:00:00 6,3 4,8 - - 35 19 46 25 ZZO 1014,8 16 0 0,0
18.02.2018 07:00:00 6,1 5,0 - - 29 16 - - ZZO 1015,2 13 0 0,0
18.02.2018 06:00:00 6,2 4,8 - - 24 13 - - Z 1016,0 20 0 0,0
18.02.2018 05:00:00 6,3 5,1 - - 21 11 - - Z 1016,0 22 0 0,0
18.02.2018 04:00:00 5,9 4,5 - - 21 11 - - Z 1016,2 24 0 0,0
18.02.2018 03:00:00 5,8 4,6 - - 13 7 - - ZZW 1016,6 21 0 0,0
18.02.2018 02:00:00 5,2 3,8 - - 18 10 - - Z 1016,4 30 0 0,0
18.02.2018 01:00:00 4,7 3,3 - - 13 7 - - Z 1016,3 28 0 0,0
18.02.2018 00:00:00 4,2 2,6 - - 11 6 - - ZZW 1016,7 40 - 0,0
17.02.2018 23:00:00 5,0 3,5 - - 11 6 - - Z 1016,6 30 0 0,0
17.02.2018 22:00:00 3,7 2,2 - - 11 6 - - ZW 1016,7 14 0 0,0
17.02.2018 21:00:00 5,2 3,4 - - 16 9 - - ZZW 1016,3 30 0 0,0
17.02.2018 20:00:00 4,9 3,6 - - 13 7 - - ZZW 1016,0 19 0 0,0
17.02.2018 19:00:00 4,0 2,4 - - 11 6 - - ZW 1016,1 19 0 0,0
17.02.2018 18:00:00 5,6 2,9 - - 13 7 - - WZW 1015,8 10 0 0,0
17.02.2018 17:00:00 6,4 3,6 - - 21 11 - - ZW 1015,2 10 12 0,0
17.02.2018 16:00:00 6,5 3,1 - - 21 11 - - ZW 1014,7 10 18 0,0
17.02.2018 15:00:00 6,8 4,3 - - 18 10 - - ZZW 1014,3 10 42 0,2
17.02.2018 14:00:00 6,4 2,7 - - 24 13 - - ZW 1014,3 9 54 0,0
17.02.2018 13:00:00 7,7 4,0 - - 24 13 - - ZW 1014,2 10 60 0,0
17.02.2018 12:00:00 6,4 2,9 - - 22 12 - - ZW 1014,0 35 42 0,0
17.02.2018 11:00:00 6,3 4,5 - - 13 7 - - W 1013,6 10 48 0,0
17.02.2018 10:00:00 5,7 3,7 - - 11 6 - - WZW 1013,0 10 48 0,0
17.02.2018 09:00:00 4,5 3,1 5,5 6,7 16 9 - - ZZW 1012,5 10 0 0,8
17.02.2018 08:00:00 4,0 2,3 - - 22 12 - - W 1012,5 3,1 0 1,2
17.02.2018 07:00:00 4,0 2,2 - - 18 10 46 25 ZZW 1011,6 26 0 1,6
17.02.2018 06:00:00 4,4 2,6 - - 24 13 - - WZW 1011,8 14 0 0,0
17.02.2018 05:00:00 5,2 3,5 - - 24 13 - - ZW 1010,9 17 0 0,0
17.02.2018 04:00:00 4,3 3,0 - - 18 10 - - ZZW 1010,9 35 0 0,8
17.02.2018 03:00:00 5,3 3,9 - - 24 13 52 28 ZW 1010,9 18 0 1,4
17.02.2018 02:00:00 5,4 3,9 - - 22 12 - - ZZW 1010,5 16 0 0,0
17.02.2018 01:00:00 4,5 3,4 - - 24 13 - - ZW 1010,8 12 0 1,8
17.02.2018 00:00:00 5,8 3,2 - - 21 11 - - ZW 1010,4 15 - 0,0
16.02.2018 23:00:00 5,6 2,6 - - 26 14 52 28 ZW 1010,2 23 0 0,2
16.02.2018 22:00:00 6,2 4,5 - - 29 16 54 29 ZZW 1009,8 14 0 0,0
16.02.2018 21:00:00 6,4 5,0 - - 37 20 59 32 ZZW 1009,4 14 0 0,2
16.02.2018 20:00:00 6,5 5,1 - - 42 23 65 35 Z 1009,1 6 0 0,2
16.02.2018 19:00:00 6,2 4,8 - - 50 27 76 41 Z 1009,2 7 0 0,6
16.02.2018 18:00:00 6,4 4,7 - - 54 29 74 40 Z 1009,0 4,8 0 0,4
16.02.2018 17:00:00 6,5 4,5 - - 48 26 63 34 Z 1009,6 10 0 0,2
16.02.2018 16:00:00 6,0 4,5 - - 46 25 63 34 Z 1010,5 10 0 0,0
16.02.2018 15:00:00 5,8 4,6 - - 44 24 57 31 Z 1011,1 9 0 1,0
16.02.2018 14:00:00 5,6 4,2 - - 42 23 54 29 Z 1012,2 11 0 0,2
16.02.2018 13:00:00 5,7 3,9 - - 37 20 50 27 Z 1012,8 15 0 0,0
16.02.2018 12:00:00 5,8 3,9 - - 34 18 52 28 Z 1013,3 10 6 0,0
16.02.2018 11:00:00 5,8 4,5 - - 26 14 - - ZZW 1013,1 10 0 0,8
16.02.2018 10:00:00 3,4 1,9 - - 13 7 52 28 ZZW 1013,2 10 0 0,2
16.02.2018 09:00:00 5,0 3,1 5,5 6,7 18 10 - - ZW 1012,6 15 0 0,0
16.02.2018 08:00:00 3,3 1,8 - - 26 14 57 31 ZZW 1012,3 30 0 0,2
16.02.2018 07:00:00 4,0 2,3 - - 22 12 - - ZW 1011,4 17 0 0,0
16.02.2018 06:00:00 3,6 1,7 - - 22 12 59 32 ZW 1010,8 18 0 0,0
16.02.2018 05:00:00 4,2 1,6 - - 28 15 48 26 WZW 1010,5 8 0 0,2
16.02.2018 04:00:00 4,3 2,0 - - 24 13 50 27 ZW 1010,0 18 0 1,0
16.02.2018 03:00:00 4,1 2,4 - - 16 9 - - ZW 1009,5 20 0 0,2
16.02.2018 02:00:00 3,1 1,2 - - 35 19 55 30 WZW 1009,1 8 0 0,0
16.02.2018 01:00:00 2,5 1,0 - - 18 10 61 33 W 1008,2 19 0 0,6
16.02.2018 00:00:00 4,1 0,8 - - 26 14 - - WZW 1007,1 13 - 0,4
15.02.2018 23:00:00 4,1 1,7 - - 34 18 61 33 ZW 1006,3 14 0 0,2
15.02.2018 22:00:00 4,4 1,7 - - 37 20 52 28 WZW 1005,1 10 0 0,0
15.02.2018 21:00:00 4,5 0,9 - - 35 19 54 29 WZW 1003,9 18 0 0,2
15.02.2018 20:00:00 3,9 1,6 - - 37 20 57 31 ZW 1002,9 16 0 0,0
15.02.2018 19:00:00 3,0 1,6 - - 18 10 55 30 W 1002,0 16 0 0,2
15.02.2018 18:00:00 3,3 1,8 - - 48 26 76 41 W 1001,0 8 0 0,0
15.02.2018 17:00:00 4,7 2,4 - - 37 20 61 33 WZW 998,9 10 0 0,4
15.02.2018 16:00:00 3,1 1,7 - - 50 27 68 37 WZW 997,9 10 0 1,0
15.02.2018 15:00:00 4,6 3,4 - - 39 21 65 35 W 996,3 9 0 1,0
15.02.2018 14:00:00 5,1 3,8 - - 46 25 72 39 WZW 994,6 14 12 0,6
15.02.2018 13:00:00 6,3 3,9 - - 48 26 72 39 WZW 993,5 20 18 0,0

tt = temperatuur
td = dauwpunt
tt -20cm = temperatuur -20cm
tt -100cm = temperatuur -100cm
ff = windsnelheid
fx = windstoten
dd = windrichting
ppp = luchtdruk
vv = zicht
sd = Zonneschijnduur
rr = neerslag

Weerstations in de omgeving